This is the latest recevied weather packets stored in our database for station/object DF7ER-12. If no packets are shown the sender has not sent any weather packets the latest 10 day(s).
| Time | Temp. | Humidity | Pressure | Rain* | Wind** | Luminosity | Snow |
|---|---|---|---|---|---|---|---|
| 1788341183 | 22.22° C | 79% | 1009.2 hPa | - | - | - | - |
| 1788340883 | 22.22° C | 80% | 1009.2 hPa | - | - | - | - |
| 1788340583 | 21.67° C | 80% | 1009.2 hPa | - | - | - | - |
| 1788340283 | 22.22° C | 79% | 1009.2 hPa | - | - | - | - |
| 1788339993 | 22.22° C | 79% | 1009.2 hPa | - | - | - | - |
| 1788339683 | 22.22° C | 79% | 1009.3 hPa | - | - | - | - |
| 1788339383 | 22.22° C | 81% | 1009.3 hPa | - | - | - | - |
| 1788339083 | 22.22° C | 80% | 1009.3 hPa | - | - | - | - |
| 1788338783 | 22.22° C | 81% | 1009.3 hPa | - | - | - | - |
| 1788338483 | 21.67° C | 84% | 1009.3 hPa | - | - | - | - |
| 1788338183 | 21.67° C | 82% | 1009.3 hPa | - | - | - | - |
| 1788337883 | 21.11° C | 85% | 1009.2 hPa | - | - | - | - |
| 1788337583 | 21.11° C | 82% | 1009.2 hPa | - | - | - | - |
| 1788337283 | 21.67° C | 83% | 1009.2 hPa | - | - | - | - |
| 1788336983 | 21.11° C | 84% | 1009.2 hPa | - | - | - | - |
| 1788336683 | 20.56° C | 85% | 1009.2 hPa | - | - | - | - |
| 1788336383 | 21.11° C | 84% | 1009.2 hPa | - | - | - | - |
| 1788336083 | 21.11° C | 83% | 1009.2 hPa | - | - | - | - |
| 1788335783 | 20.56° C | 83% | 1009.2 hPa | - | - | - | - |
| 1788335483 | 20.56° C | 86% | 1009.2 hPa | - | - | - | - |
| 1788335183 | 20.56° C | 84% | 1009.2 hPa | - | - | - | - |
| 1788334883 | 20° C | 87% | 1009.1 hPa | - | - | - | - |
| 1788334583 | 20° C | 84% | 1009.2 hPa | - | - | - | - |
| 1788334283 | 20° C | 83% | 1009.2 hPa | - | - | - | - |
| 1788333983 | 19.44° C | 86% | 1009.2 hPa | - | - | - | - |
* Rain since midnight (hover to see other rain measurements)
** Current wind speed in m/s (hover to see current wind gust speed)